Time,TemperatureF,DewpointF,PressureIn,WindDirection,WindDirectionDegrees,WindSpeedMPH,WindSpeedGustMPH,Humidity,HourlyPrecipIn,Conditions,Clouds,dailyrainin,SoftwareType,DateUTC
2013-02-15 00:02:00,37.0,29.0,-100.00,WNW,285,4.0,9.0,72,0.00,,,-99.99,,2013-02-15 05:02:00,
2013-02-15 00:12:00,36.0,28.0,-100.00,West,275,5.0,9.0,74,0.00,,,-99.99,,2013-02-15 05:12:00,
2013-02-15 00:22:00,36.0,29.0,-100.00,West,280,4.0,7.0,75,0.00,,,-99.99,,2013-02-15 05:22:00,
2013-02-15 00:32:00,36.0,28.0,-100.00,West,270,4.0,7.0,75,0.00,,,-99.99,,2013-02-15 05:32:00,
2013-02-15 00:42:00,35.0,28.0,-100.00,WSW,250,4.0,7.0,76,0.00,,,-99.99,,2013-02-15 05:42:00,
2013-02-15 00:52:00,35.0,28.0,-100.00,West,265,1.0,6.0,76,0.00,,,-99.99,,2013-02-15 05:52:00,
2013-02-15 01:02:00,35.0,28.0,-100.00,WSW,245,2.0,4.0,77,0.00,,,-99.99,,2013-02-15 06:02:00,
2013-02-15 01:11:00,35.0,28.0,-100.00,SW,215,2.0,3.0,76,0.00,,,-99.99,,2013-02-15 06:11:00,
2013-02-15 01:22:00,35.0,28.0,-100.00,SSW,205,3.0,4.0,77,0.00,,,-99.99,,2013-02-15 06:22:00,
2013-02-15 01:32:00,34.0,28.0,-100.00,SSW,210,4.0,5.0,78,0.00,,,-99.99,,2013-02-15 06:32:00,
2013-02-15 01:42:00,34.0,28.0,-100.00,SW,220,4.0,6.0,79,0.00,,,-99.99,,2013-02-15 06:42:00,
2013-02-15 01:52:00,34.0,28.0,-100.00,SW,215,4.0,5.0,79,0.00,,,-99.99,,2013-02-15 06:52:00,
2013-02-15 02:01:00,34.0,28.0,-100.00,SW,225,3.0,6.0,79,0.00,,,-99.99,,2013-02-15 07:01:00,
2013-02-15 02:11:00,34.0,28.0,-100.00,SW,215,5.0,6.0,79,0.00,,,-99.99,,2013-02-15 07:11:00,
2013-02-15 02:21:00,33.0,28.0,-100.00,SW,220,5.0,6.0,81,0.00,,,-99.99,,2013-02-15 07:21:00,
2013-02-15 02:32:00,33.0,28.0,-100.00,SW,215,6.0,7.0,80,0.00,,,-99.99,,2013-02-15 07:32:00,
2013-02-15 02:42:00,33.0,28.0,-100.00,SW,220,6.0,7.0,80,0.00,,,-99.99,,2013-02-15 07:42:00,
2013-02-15 02:52:00,33.0,28.0,-100.00,SW,220,5.0,8.0,80,0.00,,,-99.99,,2013-02-15 07:52:00,
2013-02-15 03:01:00,33.0,28.0,-100.00,SW,230,6.0,9.0,81,0.00,,,-99.99,,2013-02-15 08:01:00,
2013-02-15 03:11:00,33.0,28.0,-100.00,SW,220,7.0,11.0,79,0.00,,,-99.99,,2013-02-15 08:11:00,
2013-02-15 03:21:00,33.0,28.0,-100.00,WSW,245,7.0,10.0,79,0.00,,,-99.99,,2013-02-15 08:21:00,
2013-02-15 03:32:00,33.0,27.0,-100.00,WSW,240,6.0,9.0,79,0.00,,,-99.99,,2013-02-15 08:32:00,
2013-02-15 03:42:00,33.0,28.0,-100.00,WSW,240,6.0,7.0,80,0.00,,,-99.99,,2013-02-15 08:42:00,
2013-02-15 03:52:00,32.0,27.0,-100.00,WSW,255,3.0,7.0,81,0.00,,,-99.99,,2013-02-15 08:52:00,
2013-02-15 04:02:00,32.0,27.0,-100.00,WSW,250,3.0,6.0,81,0.00,,,-99.99,,2013-02-15 09:02:00,
2013-02-15 04:12:00,32.0,27.0,-100.00,West,265,2.0,6.0,82,0.00,,,-99.99,,2013-02-15 09:12:00,
2013-02-15 04:21:00,32.0,28.0,-100.00,WSW,255,3.0,4.0,83,0.00,,,-99.99,,2013-02-15 09:21:00,
2013-02-15 04:32:00,32.0,27.0,-100.00,West,260,3.0,5.0,83,0.00,,,-99.99,,2013-02-15 09:32:00,
2013-02-15 04:42:00,31.0,27.0,-100.00,WSW,240,2.0,4.0,84,0.00,,,-99.99,,2013-02-15 09:42:00,
2013-02-15 04:52:00,31.0,27.0,-100.00,WSW,245,2.0,3.0,85,0.00,,,-99.99,,2013-02-15 09:52:00,
2013-02-15 05:01:00,31.0,27.0,-100.00,WSW,240,2.0,3.0,85,0.00,,,-99.99,,2013-02-15 10:01:00,
2013-02-15 05:11:00,31.0,27.0,-100.00,WSW,250,2.0,4.0,86,0.00,,,-99.99,,2013-02-15 10:11:00,
2013-02-15 05:21:00,31.0,27.0,-100.00,SW,235,3.0,4.0,86,0.00,,,-99.99,,2013-02-15 10:21:00,
2013-02-15 05:32:00,31.0,27.0,-100.00,WSW,255,3.0,6.0,86,0.00,,,-99.99,,2013-02-15 10:32:00,
2013-02-15 05:42:00,31.0,27.0,-100.00,WSW,250,3.0,5.0,85,0.00,,,-99.99,,2013-02-15 10:42:00,
2013-02-15 05:51:00,31.0,27.0,-100.00,WSW,250,3.0,5.0,85,0.00,,,-99.99,,2013-02-15 10:51:00,
2013-02-15 06:01:00,31.0,27.0,-100.00,WSW,245,3.0,5.0,85,0.00,,,-99.99,,2013-02-15 11:01:00,
2013-02-15 06:11:00,31.0,27.0,-100.00,WSW,245,2.0,4.0,85,0.00,,,-99.99,,2013-02-15 11:11:00,
2013-02-15 06:23:00,31.0,27.0,-100.00,WSW,240,2.0,3.0,85,0.00,,,-99.99,,2013-02-15 11:23:00,
2013-02-15 06:32:00,31.0,27.0,-100.00,WSW,255,2.0,4.0,86,0.00,,,-99.99,,2013-02-15 11:32:00,
2013-02-15 06:42:00,31.0,27.0,-100.00,WSW,250,3.0,6.0,85,0.00,,,-99.99,,2013-02-15 11:42:00,
2013-02-15 06:52:00,31.0,27.0,-100.00,West,265,4.0,6.0,84,0.00,,,-99.99,,2013-02-15 11:52:00,
2013-02-15 07:02:00,31.0,27.0,-100.00,West,270,2.0,4.0,85,0.00,,,-99.99,,2013-02-15 12:02:00,
2013-02-15 07:11:00,31.0,27.0,-100.00,WSW,255,2.0,4.0,85,0.00,,,-99.99,,2013-02-15 12:11:00,
2013-02-15 07:21:00,31.0,27.0,-100.00,WSW,245,1.0,3.0,85,0.00,,,-99.99,,2013-02-15 12:21:00,
2013-02-15 07:32:00,31.0,27.0,-100.00,SW,215,2.0,2.0,85,0.00,,,-99.99,,2013-02-15 12:32:00,
2013-02-15 07:42:00,31.0,27.0,-100.00,SSW,205,2.0,3.0,85,0.00,,,-99.99,,2013-02-15 12:42:00,
2013-02-15 07:52:00,31.0,27.0,-100.00,SW,220,2.0,3.0,86,0.00,,,-99.99,,2013-02-15 12:52:00,
2013-02-15 08:02:00,31.0,27.0,-100.00,WSW,255,1.0,3.0,86,0.00,,,-99.99,,2013-02-15 13:02:00,
2013-02-15 08:11:00,31.0,27.0,-100.00,SW,230,2.0,3.0,86,0.00,,,-99.99,,2013-02-15 13:11:00,
2013-02-15 08:22:00,31.0,27.0,-100.00,WSW,245,2.0,3.0,85,0.00,,,-99.99,,2013-02-15 13:22:00,
2013-02-15 08:32:00,31.0,28.0,-100.00,West,265,2.0,4.0,85,0.00,,,-99.99,,2013-02-15 13:32:00,
2013-02-15 08:42:00,32.0,28.0,-100.00,SW,235,3.0,4.0,84,0.00,,,-99.99,,2013-02-15 13:42:00,
2013-02-15 08:52:00,32.0,28.0,-100.00,WSW,240,4.0,5.0,84,0.00,,,-99.99,,2013-02-15 13:52:00,
2013-02-15 09:01:00,32.0,28.0,-100.00,SW,235,4.0,6.0,83,0.00,,,-99.99,,2013-02-15 14:01:00,
2013-02-15 09:12:00,32.0,28.0,-100.00,SW,235,4.0,6.0,83,0.00,,,-99.99,,2013-02-15 14:12:00,
2013-02-15 09:21:00,32.0,28.0,-100.00,SW,235,4.0,6.0,83,0.00,,,-99.99,,2013-02-15 14:21:00,
2013-02-15 09:32:00,33.0,28.0,-100.00,WSW,240,4.0,6.0,84,0.00,,,-99.99,,2013-02-15 14:32:00,
2013-02-15 09:42:00,33.0,29.0,-100.00,SW,230,4.0,6.0,84,0.00,,,-99.99,,2013-02-15 14:42:00,
2013-02-15 09:52:00,34.0,29.0,-100.00,WSW,240,4.0,8.0,83,0.00,,,-99.99,,2013-02-15 14:52:00,
2013-02-15 10:02:00,33.0,29.0,-100.00,WSW,255,6.0,9.0,82,0.00,,,-99.99,,2013-02-15 15:02:00,
2013-02-15 10:11:00,33.0,29.0,-100.00,WSW,245,6.0,8.0,83,0.00,,,-99.99,,2013-02-15 15:11:00,
2013-02-15 10:21:00,33.0,29.0,-100.00,WSW,245,6.0,7.0,84,0.00,,,-99.99,,2013-02-15 15:21:00,
2013-02-15 10:32:00,34.0,29.0,-100.00,WSW,245,6.0,8.0,81,0.00,,,-99.99,,2013-02-15 15:32:00,
2013-02-15 10:42:00,34.0,28.0,-100.00,WSW,240,6.0,9.0,78,0.00,,,-99.99,,2013-02-15 15:42:00,
2013-02-15 10:52:00,34.0,27.0,-100.00,West,275,4.0,8.0,75,0.00,,,-99.99,,2013-02-15 15:52:00,
2013-02-15 11:02:00,34.0,26.0,-100.00,West,260,6.0,8.0,75,0.00,,,-99.99,,2013-02-15 16:02:00,
2013-02-15 11:11:00,34.0,27.0,-100.00,WSW,255,5.0,9.0,75,0.00,,,-99.99,,2013-02-15 16:11:00,
2013-02-15 11:22:00,34.0,28.0,-100.00,West,265,4.0,9.0,76,0.00,,,-99.99,,2013-02-15 16:22:00,
2013-02-15 11:32:00,34.0,27.0,-100.00,West,260,6.0,9.0,75,0.00,,,-99.99,,2013-02-15 16:32:00,
2013-02-15 11:42:00,35.0,28.0,-100.00,West,270,4.0,7.0,75,0.00,,,-99.99,,2013-02-15 16:42:00,
2013-02-15 11:52:00,35.0,28.0,-100.00,West,280,6.0,9.0,74,0.00,,,-99.99,,2013-02-15 16:52:00,
2013-02-15 12:01:00,35.0,28.0,-100.00,West,265,4.0,7.0,73,0.00,,,-99.99,,2013-02-15 17:01:00,
2013-02-15 12:11:00,36.0,28.0,-100.00,SW,235,6.0,10.0,74,0.00,,,-99.99,,2013-02-15 17:11:00,
2013-02-15 12:21:00,35.0,28.0,-100.00,WSW,240,4.0,7.0,76,0.00,,,-99.99,,2013-02-15 17:21:00,
2013-02-15 12:32:00,35.0,29.0,-100.00,SW,230,4.0,6.0,78,0.00,,,-99.99,,2013-02-15 17:32:00,
2013-02-15 12:42:00,35.0,29.0,-100.00,SW,225,3.0,6.0,79,0.00,,,-99.99,,2013-02-15 17:42:00,
2013-02-15 12:52:00,35.0,29.0,-100.00,SW,215,2.0,6.0,81,0.00,,,-99.99,,2013-02-15 17:52:00,
2013-02-15 13:01:00,34.0,29.0,-100.00,SW,215,2.0,6.0,81,0.00,,,-99.99,,2013-02-15 18:01:00,
2013-02-15 13:11:00,34.0,29.0,-100.00,WSW,240,2.0,4.0,83,0.00,,,-99.99,,2013-02-15 18:11:00,
2013-02-15 13:21:00,34.0,30.0,-100.00,WSW,240,3.0,4.0,85,0.55,,,-99.99,,2013-02-15 18:21:00,
2013-02-15 13:32:00,34.0,30.0,-100.00,SW,230,1.0,3.0,87,0.55,,,-99.99,,2013-02-15 18:32:00,
2013-02-15 13:42:00,33.0,30.0,-100.00,SW,235,1.0,3.0,88,0.00,,,-99.99,,2013-02-15 18:42:00,
2013-02-15 13:52:00,33.0,31.0,-100.00,WSW,245,2.0,4.0,89,0.00,,,-99.99,,2013-02-15 18:52:00,
2013-02-15 14:02:00,34.0,31.0,-100.00,WSW,240,2.0,4.0,90,2.24,,,-99.99,,2013-02-15 19:02:00,
2013-02-15 14:11:00,33.0,31.0,-100.00,West,270,2.0,3.0,91,0.00,,,-99.99,,2013-02-15 19:11:00,
2013-02-15 14:22:00,34.0,31.0,-100.00,NW,310,1.0,3.0,92,0.00,,,-99.99,,2013-02-15 19:22:00,
2013-02-15 14:32:00,34.0,32.0,-100.00,NW,310,2.0,4.0,92,1.10,,,-99.99,,2013-02-15 19:32:00,
2013-02-15 14:42:00,34.0,32.0,-100.00,NW,305,2.0,3.0,92,0.55,,,-99.99,,2013-02-15 19:42:00,
2013-02-15 14:52:00,32.0,30.0,-100.00,NW,320,4.0,9.0,92,0.55,,,-99.99,,2013-02-15 19:52:00,
2013-02-15 15:01:00,32.0,30.0,-100.00,NW,325,3.0,8.0,93,1.10,,,-99.99,,2013-02-15 20:01:00,
2013-02-15 15:11:00,31.0,30.0,-100.00,NNW,330,2.0,6.0,94,1.10,,,-99.99,,2013-02-15 20:11:00,
2013-02-15 15:21:00,31.0,29.0,-100.00,NW,320,2.0,7.0,94,1.10,,,-99.99,,2013-02-15 20:21:00,
2013-02-15 15:32:00,31.0,30.0,-100.00,NW,315,2.0,6.0,95,2.24,,,-99.99,,2013-02-15 20:32:00,
2013-02-15 15:42:00,31.0,30.0,-100.00,WNW,295,1.0,4.0,95,1.10,,,-99.99,,2013-02-15 20:42:00,
2013-02-15 15:52:00,31.0,30.0,-100.00,NW,315,2.0,3.0,95,0.55,,,-99.99,,2013-02-15 20:52:00,
2013-02-15 16:02:00,31.0,30.0,-100.00,WNW,300,0.0,2.0,95,0.00,,,-99.99,,2013-02-15 21:02:00,
2013-02-15 16:11:00,32.0,31.0,-100.00,NNW,340,0.0,0.0,96,0.55,,,-99.99,,2013-02-15 21:11:00,
2013-02-15 16:21:00,32.0,31.0,-100.00,NNW,335,1.0,3.0,96,1.69,,,-99.99,,2013-02-15 21:21:00,
2013-02-15 16:32:00,33.0,31.0,-100.00,North,5,2.0,4.0,95,1.69,,,-99.99,,2013-02-15 21:32:00,
2013-02-15 16:42:00,33.0,31.0,-100.00,North,355,1.0,3.0,95,0.00,,,-99.99,,2013-02-15 21:42:00,
2013-02-15 16:52:00,32.0,31.0,-100.00,NNW,330,1.0,4.0,94,0.00,,,-99.99,,2013-02-15 21:52:00,
2013-02-15 17:02:00,32.0,30.0,-100.00,NNW,335,2.0,4.0,94,0.00,,,-99.99,,2013-02-15 22:02:00,
2013-02-15 17:11:00,32.0,31.0,-100.00,NW,305,2.0,4.0,94,0.00,,,-99.99,,2013-02-15 22:11:00,
2013-02-15 17:22:00,33.0,31.0,-100.00,NW,310,1.0,4.0,93,0.00,,,-99.99,,2013-02-15 22:22:00,
2013-02-15 17:32:00,33.0,31.0,-100.00,WNW,285,2.0,4.0,90,0.00,,,-99.99,,2013-02-15 22:32:00,
2013-02-15 17:41:00,33.0,30.0,-100.00,West,275,2.0,4.0,88,0.00,,,-99.99,,2013-02-15 22:41:00,
2013-02-15 17:51:00,32.0,29.0,-100.00,West,280,3.0,4.0,87,0.00,,,-99.99,,2013-02-15 22:51:00,
2013-02-15 18:02:00,32.0,29.0,-100.00,WSW,255,2.0,3.0,87,0.00,,,-99.99,,2013-02-15 23:02:00,
2013-02-15 18:11:00,32.0,28.0,-100.00,WNW,295,4.0,6.0,87,0.00,,,-99.99,,2013-02-15 23:11:00,
2013-02-15 18:21:00,32.0,28.0,-100.00,NNE,15,0.0,4.0,87,0.00,,,-99.99,,2013-02-15 23:21:00,
2013-02-15 18:32:00,31.0,28.0,-100.00,WNW,295,0.0,1.0,87,0.00,,,-99.99,,2013-02-15 23:32:00,
2013-02-15 18:42:00,31.0,28.0,-100.00,West,280,1.0,3.0,88,0.00,,,-99.99,,2013-02-15 23:42:00,
2013-02-15 18:52:00,31.0,28.0,-100.00,NW,305,1.0,2.0,88,0.00,,,-99.99,,2013-02-15 23:52:00,
2013-02-15 19:02:00,31.0,28.0,-100.00,WNW,290,0.0,2.0,87,0.00,,,-99.99,,2013-02-16 00:02:00,
2013-02-15 19:11:00,31.0,28.0,-100.00,NW,315,1.0,2.0,87,0.00,,,-99.99,,2013-02-16 00:11:00,
2013-02-15 19:21:00,31.0,28.0,-100.00,NW,320,4.0,7.0,86,0.00,,,-99.99,,2013-02-16 00:21:00,
2013-02-15 19:32:00,32.0,28.0,-100.00,NW,325,2.0,6.0,85,0.00,,,-99.99,,2013-02-16 00:32:00,
2013-02-15 19:41:00,32.0,28.0,-100.00,NW,315,4.0,11.0,84,0.00,,,-99.99,,2013-02-16 00:41:00,
2013-02-15 19:51:00,32.0,27.0,-100.00,NNW,345,2.0,9.0,84,0.00,,,-99.99,,2013-02-16 00:51:00,
2013-02-15 20:02:00,31.0,27.0,-100.00,NNW,335,6.0,9.0,84,0.00,,,-99.99,,2013-02-16 01:02:00,
2013-02-15 20:11:00,31.0,27.0,-100.00,NNW,335,4.0,10.0,83,0.00,,,-99.99,,2013-02-16 01:11:00,
2013-02-15 20:21:00,31.0,27.0,-100.00,NW,310,4.0,9.0,85,0.00,,,-99.99,,2013-02-16 01:21:00,
2013-02-15 20:32:00,30.0,26.0,-100.00,NNW,345,8.0,14.0,85,0.00,,,-99.99,,2013-02-16 01:32:00,
2013-02-15 20:42:00,30.0,25.0,-100.00,North,5,6.0,14.0,82,0.00,,,-99.99,,2013-02-16 01:42:00,
2013-02-15 20:52:00,29.0,24.0,-100.00,North,5,6.0,16.0,80,0.00,,,-99.99,,2013-02-16 01:52:00,
2013-02-15 21:01:00,29.0,24.0,-100.00,NNW,340,6.0,11.0,80,0.00,,,-99.99,,2013-02-16 02:01:00,
2013-02-15 21:11:00,29.0,24.0,-100.00,NNW,345,4.0,8.0,80,0.00,,,-99.99,,2013-02-16 02:11:00,
2013-02-15 21:21:00,29.0,24.0,-100.00,NW,315,2.0,7.0,80,0.00,,,-99.99,,2013-02-16 02:21:00,
2013-02-15 21:32:00,29.0,23.0,-100.00,NW,315,2.0,6.0,79,0.00,,,-99.99,,2013-02-16 02:32:00,
2013-02-15 21:42:00,29.0,23.0,-100.00,NNW,330,2.0,6.0,77,0.00,,,-99.99,,2013-02-16 02:42:00,
2013-02-15 21:52:00,29.0,23.0,-100.00,NNW,335,3.0,7.0,78,0.00,,,-99.99,,2013-02-16 02:52:00,
2013-02-15 22:02:00,29.0,23.0,-100.00,NW,315,2.0,5.0,78,0.00,,,-99.99,,2013-02-16 03:02:00,
2013-02-15 22:11:00,29.0,23.0,-100.00,NW,310,2.0,4.0,78,0.00,,,-99.99,,2013-02-16 03:11:00,
2013-02-15 22:21:00,28.0,23.0,-100.00,NW,315,2.0,4.0,78,0.00,,,-99.99,,2013-02-16 03:21:00,
2013-02-15 22:32:00,28.0,23.0,-100.00,NW,315,3.0,6.0,78,0.00,,,-99.99,,2013-02-16 03:32:00,
2013-02-15 22:42:00,28.0,23.0,-100.00,NW,315,2.0,5.0,79,0.00,,,-99.99,,2013-02-16 03:42:00,
2013-02-15 22:52:00,28.0,23.0,-100.00,WNW,295,1.0,4.0,79,0.00,,,-99.99,,2013-02-16 03:52:00,
2013-02-15 23:01:00,28.0,23.0,-100.00,NW,315,1.0,6.0,79,0.00,,,-99.99,,2013-02-16 04:01:00,
2013-02-15 23:11:00,28.0,23.0,-100.00,WNW,300,1.0,3.0,80,0.00,,,-99.99,,2013-02-16 04:11:00,
2013-02-15 23:21:00,28.0,22.0,-100.00,WNW,290,2.0,3.0,80,0.00,,,-99.99,,2013-02-16 04:21:00,
2013-02-15 23:32:00,28.0,22.0,-100.00,NW,315,1.0,3.0,81,0.00,,,-99.99,,2013-02-16 04:32:00,
2013-02-15 23:42:00,27.0,22.0,-100.00,NW,305,1.0,3.0,82,0.00,,,-99.99,,2013-02-16 04:42:00,
2013-02-15 23:51:00,27.0,23.0,-100.00,NW,305,0.0,1.0,83,0.00,,,-99.99,,2013-02-16 04:51:00,